sat.trackr.live / text

‹ back to catalog

STARLINK-30236

NORAD 57300 · 2023-096L

PAYLOAD ACTIVE UNKNOWN

§ Identity

Operator
Country
US
Launch date
2023-07-10
Launch site
AFETR
Launch vehicle
Mass (kg)
RCS (m²)

Purposes: comms

External: N2YO · Heavens-Above · Gunter

§ Orbital elements

Epoch: 2026-09-20T22:00:03.000096Z

Period
91.69 min
Inclination
42.9991°
Eccentricity
0.0001449
Mean motion
15.70452858 rev/d
Perigee alt
356.6 km
Apogee alt
358.6 km
Semi-major
6,735.7 km
B*
3.1161e-3
RAAN
191.6687°
Arg perigee
275.7492°
Mean anomaly
229.8018°
Rev number
586

§ Raw data

STARLINK-302361 57300U 23096L   26263.91670139  .00413181  00000+0  31161-2 0  99912 57300  42.9991 191.6687 0001449 275.7492 229.8018 15.70452858  5867

JSON: /api/v1/satellites/57300 · /tle

For live sub-satellite position, see the globe view (requires WebGL).

§ Visibility from observer

Set your observer location to see the next 7 days of passes ≥ 10°. The values pass through the URL so the page stays shareable.

No JS? Fill the form by hand. The geolocation button needs JavaScript.